GFSMA_925_thetae_021.txt.gz
Theta_e
329 330 330 329 328 327 325 321 318 315 310 302 301 301 300 300 300 300 300 301 300 300 306 316 318 318 319 320 320 319 318 316 315 315 314 315 316 316 317 318 318 318 319
332 327 330 329 328 326 326 324 319 316 313 305 300 300 300 299 299 300 300 300 300 301 305 315 317 318 319 319 319 319 319 317 314 314 312 312 314 314 315 315 313 313 314
330 328 328 329 328 326 325 323 320 317 314 311 302 300 300 299 298 299 299 300 300 302 306 313 315 317 319 319 320 322 320 317 314 312 311 311 313 313 314 313 311 313 313
331 330 329 327 326 328 326 322 320 317 315 312 307 301 299 299 298 298 298 299 300 301 304 307 308 312 318 318 319 318 317 317 314 312 310 311 312 312 312 311 311 311 311
329 329 329 328 326 325 323 321 319 316 315 313 308 302 299 298 298 298 298 299 299 300 301 304 305 306 309 315 318 318 316 317 315 312 310 310 310 310 310 310 309 310 310
325 325 324 323 323 321 319 319 318 316 313 312 308 305 301 298 297 297 298 298 298 299 300 301 303 304 309 315 317 316 317 317 314 312 310 309 308 309 308 308 309 309 309
320 321 319 319 318 318 318 317 316 314 311 308 304 303 302 300 298 297 297 297 297 298 298 299 299 301 305 312 314 315 314 316 314 311 310 308 307 307 307 307 308 308 308
312 313 314 314 312 312 312 311 312 311 309 307 301 295 294 298 299 298 297 297 297 297 297 297 297 297 299 306 311 312 313 314 314 311 309 307 307 306 306 306 307 307 307
301 303 306 306 307 307 306 305 305 305 304 303 301 298 295 293 291 296 297 296 296 296 296 296 296 296 296 297 303 308 310 311 313 312 311 308 306 305 305 305 306 306 307
296 297 298 299 299 300 301 302 302 300 299 299 299 299 297 295 294 294 297 297 296 296 297 296 296 295 295 295 296 300 304 306 310 312 310 307 305 304 304 305 305 306 306
288 289 291 293 294 295 295 296 298 300 300 298 296 296 296 296 294 293 295 293 296 297 297 297 296 296 296 295 294 294 296 299 303 310 310 306 304 303 303 304 305 305 305
285 285 285 285 285 287 289 291 293 294 296 297 297 296 295 294 294 293 292 293 293 295 296 297 297 297 297 295 295 294 294 296 302 309 309 308 304 301 301 303 304 304 304
285 285 285 285 285 285 285 285 285 287 290 292 293 293 294 294 294 294 293 294 292 293 294 295 296 297 297 297 295 294 293 294 300 307 308 307 304 302 299 301 302 303 304
284 284 284 284 284 284 285 285 285 285 285 285 285 288 290 291 292 293 293 293 293 294 294 293 294 295 296 297 296 294 292 292 295 301 304 304 303 301 299 298 301 302 302
283 283 283 283 283 284 283 283 283 283 283 283 284 284 284 285 288 290 291 292 292 293 293 295 294 295 295 295 296 296 294 292 291 295 299 300 299 297 296 297 299 301 301
283 283 283 283 283 283 282 282 282 282 282 282 282 282 283 283 284 285 287 290 291 291 292 293 293 293 294 294 294 294 295 294 292 291 293 296 297 295 294 296 297 299 299
283 283 282 283 282 282 282 281 281 281 280 281 281 281 282 282 283 283 284 285 287 289 290 291 291 292 292 293 294 294 294 293 293 292 291 292 295 295 293 295 296 297 298
282 282 282 281 281 280 280 279 279 279 279 279 280 280 281 281 281 282 282 283 284 285 287 288 289 290 291 292 293 293 294 294 293 293 292 291 292 293 293 292 295 296 296
281 280 279 279 278 278 277 277 278 278 279 279 279 279 280 280 281 281 282 283 284 285 286 287 287 288 289 290 291 292 291 292 292 292 291 290 290 292 293 292 293 294 295
280 280 279 278 277 276 276 276 277 278 278 278 278 278 279 279 279 280 281 282 283 284 284 286 287 287 287 288 289 289 289 289 289 289 290 289 290 291 292 292 291 292 293
279 278 278 278 276 275 275 275 276 276 276 276 276 277 277 278 278 279 280 280 281 283 283 284 285 286 287 286 287 288 287 288 288 289 288 288 288 290 291 291 290 290 292
278 277 276 275 274 273 273 273 274 274 274 274 274 274 274 275 275 277 278 279 280 281 282 284 285 285 286 287 287 287 288 287 287 287 286 285 286 287 289 290 290 290 290
276 274 273 271 271 270 270 272 272 272 271 271 271 271 272 272 272 272 273 275 276 277 279 281 283 285 286 286 287 287 287 288 288 288 287 286 285 285 287 288 289 289 289
273 272 271 269 268 268 269 269 270 270 270 269 269 269 270 270 270 271 271 272 273 273 274 275 277 281 283 284 286 287 288 287 287 288 288 287 286 285 285 286 287 288 289
270 270 268 267 266 266 266 268 269 269 269 269 269 269 269 269 270 271 273 273 273 273 274 275 276 277 279 282 284 285 287 287 287 287 286 286 287 286 285 284 285 286 288
268 267 266 266 265 265 265 266 268 269 269 269 269 269 269 270 271 272 273 273 273 272 273 273 274 275 277 278 280 285 286 288 287 287 287 285 286 285 283 283 284 284 287

GFSMA_925_thetae_024.txt.gz
Theta_e
331 329 329 331 330 329 327 325 324 322 317 313 305 301 301 300 300 300 300 301 301 301 301 315 318 318 319 319 320 320 319 318 315 315 313 314 315 315 316 316 317 317 317
332 331 328 327 329 329 327 326 324 322 319 315 311 302 300 300 300 300 300 300 300 301 302 310 317 318 319 320 319 319 319 318 316 314 313 312 313 314 315 315 314 313 314
332 332 329 328 328 329 328 326 323 322 321 318 314 309 302 300 300 299 299 299 300 300 302 306 312 316 318 320 319 321 319 319 316 314 313 310 313 313 313 313 312 312 312
328 328 328 327 326 326 326 326 324 321 319 317 315 312 308 302 299 298 298 298 299 300 300 303 306 307 312 319 319 319 319 318 316 314 312 311 311 311 312 312 311 311 311
324 324 324 323 322 321 321 320 317 316 316 315 313 312 310 307 303 300 298 298 298 298 299 301 303 306 306 309 315 319 319 317 317 315 312 310 310 310 310 310 310 310 310
320 320 319 318 318 318 317 316 316 315 314 312 310 311 311 310 308 306 304 299 298 298 298 299 300 302 304 306 310 316 319 317 317 314 312 311 310 309 309 309 309 309 309
312 313 312 312 312 312 311 312 312 312 311 309 308 307 308 309 307 305 301 299 298 297 297 297 298 299 300 302 308 314 318 316 318 315 313 311 310 308 308 308 308 309 309
304 305 305 305 307 307 305 304 305 306 305 304 302 299 297 302 300 300 298 299 299 297 297 297 297 297 297 298 299 308 313 315 315 315 314 311 310 308 307 307 307 308 308
298 298 298 299 300 300 300 301 301 300 300 300 300 299 298 297 293 301 300 300 297 298 298 298 297 297 296 296 296 296 303 310 312 314 315 313 310 309 307 307 307 307 307
291 291 292 293 293 294 295 295 296 298 299 297 298 297 297 295 295 293 297 298 298 297 296 296 296 297 297 297 296 296 295 297 304 308 310 314 311 309 307 306 306 307 307
286 286 286 286 286 286 287 289 292 293 293 294 294 295 295 295 294 292 294 294 295 297 297 297 297 297 297 297 297 296 296 295 295 299 304 310 312 309 307 306 306 306 306
285 285 285 285 285 285 285 285 285 285 286 287 288 290 291 293 294 293 293 295 294 295 296 296 297 297 297 297 297 297 296 295 294 294 296 301 310 309 307 305 305 305 306
284 284 284 284 284 284 284 283 284 284 283 284 284 284 285 286 288 290 291 292 293 294 294 295 296 296 297 297 297 297 296 295 294 293 294 299 309 309 308 305 304 304 305
283 283 283 283 283 283 283 283 283 283 283 283 283 283 283 283 284 285 288 290 290 292 293 294 295 295 296 296 296 296 295 295 295 294 293 299 306 307 307 305 303 302 303
283 283 283 283 283 283 282 282 282 282 282 282 282 282 282 282 282 283 283 285 289 290 290 292 293 293 294 294 295 295 295 294 294 293 292 293 302 304 304 303 302 301 301
283 283 283 282 282 282 281 281 281 281 281 281 281 281 282 282 282 282 282 282 283 287 287 288 288 289 288 289 291 292 294 295 295 294 293 292 292 300 301 300 300 300 300
282 282 281 281 281 280 280 280 280 280 280 281 281 280 280 280 280 281 281 281 281 283 285 285 285 285 285 286 286 286 290 292 293 294 294 293 291 293 297 298 297 297 299
281 281 280 280 279 279 279 278 278 278 278 278 279 279 278 279 279 279 280 280 281 281 282 283 284 284 285 285 285 286 286 289 291 292 293 294 293 292 295 295 295 295 296
281 280 279 279 278 278 277 277 277 276 277 277 277 277 277 278 278 278 278 279 280 280 281 282 283 284 284 285 285 286 286 286 287 291 291 292 293 291 293 296 295 295 294
281 280 279 278 277 276 276 275 275 275 275 275 275 275 275 276 276 277 277 278 279 280 281 281 282 282 283 284 285 286 286 286 287 287 289 291 291 292 291 293 295 295 294
281 280 279 278 277 276 274 274 274 274 274 274 273 273 273 274 274 275 276 276 277 278 279 279 280 281 282 283 284 285 286 286 286 287 288 289 289 290 290 290 294 295 294
279 279 278 277 276 274 273 273 274 273 272 272 272 271 271 271 272 272 273 274 275 276 277 278 279 281 282 283 283 284 285 286 286 287 287 287 288 288 289 290 291 293 294
278 277 276 275 274 273 272 272 272 271 271 271 270 270 270 270 270 270 270 271 272 272 274 275 275 276 277 278 280 282 285 285 286 286 287 286 287 288 288 288 289 290 292
276 276 275 273 272 271 270 270 271 270 269 269 269 269 269 269 269 270 271 271 272 272 273 273 273 274 274 275 275 276 278 281 284 285 286 286 287 286 287 288 287 288 290
275 274 272 270 270 270 270 269 270 269 269 269 269 269 269 269 269 271 272 273 273 273 273 273 274 274 275 276 277 278 279 279 281 283 284 286 286 287 287 287 288 287 288
272 271 271 270 269 269 269 268 269 269 269 269 269 269 270 271 272 273 273 273 273 273 273 273 273 273 273 274 274 275 275 277 279 280 285 285 285 286 285 286 286 286 286

GFSMA_925_thetae_030.txt.gz
Theta_e
332 332 332 331 330 329 328 327 325 323 320 317 317 313 308 303 300 300 300 300 300 300 301 309 319 320 320 320 321 320 319 319 317 316 315 314 313 315 315 316 316 316 316
331 331 330 329 329 328 327 326 325 323 322 320 317 315 312 309 307 303 300 299 299 299 300 301 312 320 321 321 321 321 320 320 320 317 315 314 313 314 314 315 315 314 313
328 328 326 325 326 325 324 324 323 321 321 319 317 316 316 317 315 312 307 302 300 299 298 299 301 306 310 314 320 323 321 322 322 317 316 313 312 312 313 313 314 312 312
325 325 324 323 322 322 322 322 320 319 317 317 314 314 315 314 313 313 314 314 310 303 299 298 298 300 302 305 307 316 320 322 319 317 316 315 313 311 312 311 312 312 312
320 320 319 318 318 318 317 316 315 316 315 314 314 314 313 312 310 306 307 310 308 305 303 300 297 297 299 301 303 306 308 316 321 321 318 315 314 312 311 311 311 311 311
314 313 312 311 311 310 310 309 309 308 305 305 308 310 310 309 307 304 302 299 301 299 297 298 298 298 297 297 298 299 306 310 316 321 319 316 314 314 312 311 310 310 310
307 306 306 304 303 303 303 304 306 305 303 303 307 308 308 304 302 302 302 300 299 299 299 298 297 297 297 297 297 297 297 302 308 316 320 319 315 314 313 312 310 310 310
301 300 299 298 298 298 298 299 301 303 302 300 302 306 309 307 303 303 300 298 300 299 300 299 299 300 300 299 298 297 297 297 297 303 311 316 318 318 315 313 312 310 310
293 293 293 292 292 292 292 293 295 298 299 299 299 301 306 306 301 301 299 301 299 298 297 298 297 298 298 300 301 301 299 297 297 296 296 300 309 314 316 316 314 312 310
287 287 287 287 287 287 287 287 288 289 291 291 295 295 297 297 300 301 299 297 295 291 292 295 293 295 296 297 298 299 299 297 297 296 296 296 296 301 309 314 316 313 311
286 286 286 286 285 285 285 285 285 286 286 287 288 289 290 291 292 291 293 291 290 290 292 289 292 292 295 296 296 296 296 296 296 296 296 296 295 296 301 305 311 315 312
285 285 285 284 284 284 284 284 284 284 284 285 285 286 287 287 287 288 289 288 289 289 287 289 290 291 291 294 293 291 290 292 294 296 296 295 295 296 299 301 304 311 314
284 283 284 284 284 283 283 283 283 283 283 283 283 284 284 285 285 285 286 286 287 287 287 288 288 291 290 292 293 288 285 285 286 287 291 295 296 294 298 301 302 305 312
284 284 284 283 283 283 283 283 282 282 282 282 282 282 282 283 283 284 284 284 286 286 286 287 287 289 288 291 288 285 286 285 285 285 286 287 292 295 295 298 301 304 309
284 284 284 283 283 283 282 282 282 282 281 281 281 281 281 282 282 282 283 283 284 286 287 286 286 286 285 285 284 285 285 285 285 285 285 285 286 290 294 296 299 303 308
284 283 283 283 283 283 282 282 282 281 281 281 281 281 281 281 281 281 282 282 282 283 285 284 284 284 284 283 283 284 284 285 285 285 285 285 285 285 287 294 296 299 304
285 284 284 283 282 282 281 281 280 280 280 280 280 280 280 280 280 280 280 280 281 281 282 282 282 282 282 282 282 283 283 284 284 285 285 286 286 285 286 286 292 296 299
285 284 283 282 282 281 280 280 279 279 278 279 279 278 279 278 278 279 279 279 279 279 280 280 280 281 281 281 281 282 282 283 283 284 285 286 287 288 288 288 287 291 294
283 283 282 281 280 280 279 278 277 277 278 278 278 277 277 277 277 277 277 277 277 278 278 278 279 278 279 279 280 281 281 281 282 284 285 285 286 287 287 288 289 287 288
282 281 281 280 279 279 278 276 277 277 277 277 277 276 276 275 275 275 275 275 276 276 277 277 277 277 277 277 278 279 281 281 282 283 284 284 285 285 286 287 288 287 287
280 279 279 279 278 278 276 276 277 277 277 276 276 275 275 274 273 273 274 274 275 275 275 275 275 276 277 277 277 277 277 278 278 279 280 282 285 286 287 287 288 288 288
279 279 278 278 277 277 276 276 276 276 275 275 275 274 273 273 273 273 273 273 273 274 274 274 274 275 275 276 276 276 276 276 278 277 278 278 278 279 280 285 286 286 287
279 278 277 276 276 276 276 275 274 274 274 274 273 273 273 273 272 272 272 272 273 273 274 274 274 275 275 275 275 275 275 276 277 277 277 278 278 279 280 280 282 286 287
278 277 276 276 274 275 275 274 274 274 273 273 272 272 272 272 272 272 273 273 273 274 274 274 274 274 274 275 275 275 276 276 277 277 277 278 278 278 278 279 280 281 284
277 276 275 275 274 275 274 273 272 273 273 273 272 272 272 272 272 274 275 275 275 275 275 275 276 276 277 277 277 278 278 278 278 278 277 277 277 277 277 277 278 279 282
276 275 274 273 274 274 273 272 272 273 273 273 273 273 273 274 274 275 275 276 276 276 277 277 277 277 276 276 276 276 276 277 277 277 277 277 277 277 277 277 278 279 279

GFSMA_925_thetae_033.txt.gz
Theta_e
332 332 332 331 329 328 327 327 326 324 322 321 319 318 316 315 312 307 302 301 300 299 300 309 318 322 322 321 321 320 319 319 318 318 316 315 314 314 316 316 317 316 316
331 330 330 328 328 327 326 326 325 324 322 320 317 318 316 315 316 313 309 306 305 301 299 299 306 314 318 320 321 324 324 321 323 321 317 316 313 313 314 314 315 314 313
327 327 326 325 325 324 325 324 323 322 320 319 317 317 315 311 311 308 307 306 304 304 303 299 299 300 302 310 315 318 322 323 323 322 317 316 314 313 312 313 313 313 312
324 323 322 321 321 322 320 320 319 319 317 317 317 315 316 314 311 309 307 306 305 304 303 302 298 297 298 300 303 311 315 318 321 321 319 316 316 314 313 312 312 312 312
319 319 318 316 315 315 315 314 314 314 311 310 310 312 313 312 311 309 307 303 301 300 300 299 299 299 298 297 298 302 305 310 314 318 320 320 317 315 314 313 312 311 312
309 310 309 309 308 308 307 310 310 308 306 305 307 310 311 310 307 305 303 302 300 301 300 300 300 299 298 297 297 299 303 304 306 309 316 320 319 316 315 313 312 311 312
303 303 302 303 303 302 303 304 307 306 303 303 307 307 309 305 304 305 302 301 301 301 301 301 300 300 300 301 300 299 301 303 304 304 307 314 316 319 317 315 314 313 312
297 297 297 297 297 296 296 297 300 303 302 300 302 306 310 307 304 303 302 301 299 293 296 294 295 295 297 298 299 301 301 301 301 302 303 304 307 313 315 318 317 315 314
293 293 292 291 291 290 289 290 291 293 295 296 295 300 304 304 300 302 301 295 294 290 292 294 288 291 292 296 298 298 297 297 298 299 299 300 302 303 305 309 315 317 316
289 288 288 288 288 288 288 288 289 289 290 290 291 292 292 296 296 295 293 293 290 290 289 292 287 293 291 293 295 296 295 293 294 295 297 298 300 301 303 304 305 310 315
287 287 287 287 287 286 286 286 286 287 287 288 288 289 289 289 290 289 290 289 289 288 289 287 289 289 290 290 293 293 290 287 286 287 287 292 297 299 301 303 304 305 307
286 286 286 286 285 285 285 284 284 284 285 285 286 286 287 287 287 287 288 288 288 287 287 288 289 288 289 288 293 292 293 288 287 289 288 289 290 294 299 301 302 304 305
285 285 285 285 284 284 284 284 283 283 283 284 284 285 285 285 285 285 285 286 286 286 287 287 287 287 288 290 290 292 288 285 287 288 289 290 291 292 292 297 300 301 303
285 284 284 284 284 283 283 283 283 283 283 283 283 283 283 284 284 284 284 284 285 286 286 286 286 286 287 286 286 285 285 285 285 287 288 289 290 291 291 292 295 299 300
284 284 284 284 283 283 283 283 283 282 283 283 283 283 283 283 283 283 283 283 284 285 285 285 285 285 284 284 284 284 283 284 285 286 286 288 289 289 290 291 292 293 298
284 284 284 284 284 283 283 283 282 282 282 282 282 282 282 282 282 282 282 282 282 283 284 283 283 283 283 282 282 282 283 283 283 284 285 286 287 288 289 290 291 292 293
284 284 284 284 284 284 283 282 282 281 281 281 281 281 280 280 280 280 280 281 281 281 282 281 281 281 281 281 281 281 281 281 282 282 283 284 286 287 288 289 290 290 292
285 285 285 285 284 283 282 281 280 280 280 280 280 280 280 280 279 279 279 279 279 279 279 280 279 279 279 279 279 279 280 280 281 281 283 284 285 286 287 288 288 289 290
285 285 284 283 282 282 281 280 280 279 279 279 279 279 278 278 278 278 277 277 277 277 277 278 278 278 278 278 278 278 278 279 280 280 280 280 281 283 285 286 287 287 288
285 284 283 282 282 281 280 279 279 279 279 279 278 278 277 277 276 276 276 276 276 276 276 276 276 276 276 276 277 277 277 277 277 278 278 278 279 281 282 284 286 287 288
284 283 282 281 280 280 279 278 278 278 278 278 277 277 276 276 275 275 275 275 275 275 275 275 275 275 276 275 276 276 276 277 277 277 277 277 278 278 278 279 280 283 285
283 283 281 280 280 279 278 278 277 277 277 277 277 276 275 275 274 275 274 274 274 274 274 275 275 275 275 275 275 276 276 276 277 276 277 277 277 278 278 278 280 281 282
282 281 280 279 279 279 278 277 276 276 276 276 276 275 275 274 274 274 273 274 274 274 275 275 275 275 275 275 275 275 276 276 276 277 277 277 277 278 278 278 279 279 280
281 280 279 279 278 278 277 276 275 274 275 275 275 274 274 274 274 274 274 274 275 275 275 275 275 275 275 276 276 276 276 276 277 278 278 278 278 278 278 278 278 278 278
280 279 278 278 277 277 276 275 274 274 274 275 274 274 274 274 274 275 276 276 276 276 276 277 277 277 277 278 278 278 278 277 277 277 277 277 277 277 277 277 277 277 279
279 278 278 277 277 277 275 274 273 273 274 274 275 275 275 276 275 276 276 276 276 274 274 275 274 274 274 274 275 275 275 276 277 277 277 277 276 276 276 276 277 277 277